User: anonymous   Login
Location: Springfield
(37.2150°N, 93.2980°W)
Time: 05:39:33
(UTC-05:00)
Language:

Iridium 62 - Orbit

View from above orbital plane
View from above orbital plane
View from above satellite
View from above satellite

Ground track
Ground track

The orbit data is extracted from the following two-line orbital elements,

1 25285U 98021A   17178.53936377 +.00000076 +00000-0 +20058-4 0  9991
2 25285 086.3967 219.5718 0002323 088.8396 271.3066 14.34222212006518
Epoch (UTC): 27 June 2017 12:56:41
Eccentricity: 0.0002323
inclination: 86.3967°
perigee height: 776 km
apogee height: 779 km
right ascension of ascending node: 219.5718°
argument of perigee: 88.8396°
revolutions per day: 14.34222212
mean anomaly at epoch: 271.3066°
orbit number at epoch: 651

The dashed part of the orbit path shows where the satellite is in the earth's shadow,  

DLR